www.pogodaiklimat.ru

Погода и климат >> Архив погоды >> Буркина-Фасо >> Dedougou


ПОГОДА в Dedougou

  • Прогноз погоды в Dedougou
  • Монитор погоды в Dedougou
  • Климат города

АРХИВ ПОГОДЫ в Dedougou

Время (UTC), дата Ветер
(напр.,м/с)
 
Видим.   Явления Облачность Т
(С)
Тd
(С)
f
(%)
Тe
(С)
Тes
(С)
Комфортность P
(гПа)
Po
(гПа)
Тmin
(С)
Tmax
(С)
R
(мм)
R24
(мм)
S
(см)
18 17.06 СВ 2 15 км 9/0
[Ac As Ci sp]
+26.8 +21.2 71 +34 +34 очень
душно
1010.6 977.0 +27.8 0.9
21 17.06 СЗ 1 10 км 9/0
[Ac trans Ci sp]
+25.0 +22.8 88 +33 +33 очень
душно
1010.8 976.9
03 18.06 СЗ 2 10 км 9/0
[Ci sp]
+23.5 +22.5 94 +31 +31 очень
душно
1009.4 975.7
06 18.06 ЮЗ 2 15 км 9/0
[Ci sp]
+23.1 +21.8 92 +31 +31 очень
душно
1009.7 976.0 +22.9 0.9
09 18.06 Ю 1 15 км 9/0
[Ac trans Ci sp]
+27.0 +22.0 74 +35 +44 очень
душно
1010.6 977.0
12 18.06 З 1 15 км 9/0
[Ci sp]
+30.9 +21.8 58 +39 +60 опасность
солнечного
удара
1009.7 976.3
15 18.06 ЮЗ 1 15 км 9/0
[Ci sp]
+33.0 +23.1 56 +43 +55 опасность
перегрева
1008.2 974.9
18 18.06 Ю 2 15 км 9/0
[Ci sp]
+32.0 +22.7 58 +42 +42 опасность
перегрева
1008.1 974.8 +33.9
00 19.06 Ю 1 10 км 9/0
[Ci sp]
+28.0 +23.4 76 +38 +38 очень
душно
1009.3 976.1
03 19.06 штиль 0 10 км 9/0
[Ci sp]
+26.5 +24.4 88 +37 +37 очень
душно
1008.3 975.2
06 19.06 Ю 2 15 км 9/0
[Ci sp]
+25.6 +24.0 91 +35 +35 очень
душно
1008.5 975.3 +25.5
09 19.06 ЮЗ 3 15 км 9/0
[Ci sp]
+28.8 +23.4 73 +39 +46 очень
душно
1009.7 976.4
12 19.06 ЮЗ 2 15 км 9/1 600 м
[Cu Sc Ci sp]
+32.3 +24.3 63 +45 +60 опасность
перегрева
1009.1 976.0
18 19.06 ЮЗ 3 15 км 9/0
[Ci sp]
+32.7 +23.2 57 +43 +43 опасность
перегрева
1006.1 973.0 +34.5
21 19.06 Ю 2 10 км 9/0
[Ci sp]
+30.6 +24.1 68 +42 +42 опасность
перегрева
1008.3 975.1
00 20.06 Ю 2 10 км 9/0
[Ci sp]
+29.5 +23.8 71 +40 +40 очень
душно
1008.4 975.3
03 20.06 Ю 3 10 км 9/0
[Ci sp]
+28.8 +23.7 74 +39 +39 очень
душно
1007.5 974.5
06 20.06 Ю 4 15 км 9/1 600 м
[Sc Ci sp]
+27.5 +23.2 77 +37 +37 очень
душно
1009.6 976.4 +27.5
12 20.06 З 4 15 км 9/3 600 м
[Sc Ci sp]
+31.0 +23.3 64 +42 +50 опасность
перегрева
1010.3 977.1
18 20.06 ЮВ 1 10 км слабый ливневой дождь, в посл. час гроза 9/1 600 м
[Cb cap Ac As Ci sp]
+29.0 +21.7 65 +37 +37 очень
душно
1008.5 975.2 +32.6
21 20.06 С 2 10 км зарница {дождь} 9/8 600 м
[Cb cap Ac As Ci sp]
+25.6 +24.2 92 +35 +35 очень
душно
1010.5 977.0
00 21.06 СВ 2 10 км {дождь} 9/5 600 м
[Sc Ac As Ci sp]
+24.5 +23.1 92 +33 +33 очень
душно
1011.0 977.6 0.5
03 21.06 В 1 10 км гроза без осадков {дождь} 9/6 600 м
[Cb cap Ac As]
+23.7 +23.4 98 +32 +32 очень
душно
1010.5 977.0
06 21.06 Ю 1 15 км {гроза, дождь} 9/1 600 м
[Sc Ac As Ci sp]
+22.1 +21.8 98 +29 +29 очень
душно
1011.2 977.5 +21.8 36
09 21.06 ЮЗ 2 15 км 9/8 600 м
[Sc Ac As]
+24.5 +22.3 88 +32 +33 очень
душно
1013.2 979.4
15 21.06 ЮЗ 2 15 км 9/8 600 м
[Cu Sc Ci sp]
+30.0 +22.0 62 +39 +41 очень
душно
1011.1 977.5
18 21.06 ЮЗ 2 15 км 9/1 600 м
[Cu Sc Ac trans Ci sp]
+28.6 +22.5 70 +38 +38 очень
душно
1010.9 977.2 +30.5
21 21.06 Ю 3 10 км 9/0
[Ci sp]
+25.9 +22.4 81 +34 +34 очень
душно
1012.8 979.0
03 22.06 Ю 1 10 км 9/0
[Ci sp]
+24.0 +22.5 91 +31 +31 очень
душно
1012.8 979.2
06 22.06 Ю 1 15 км 9/0
[Ci sp]
+23.8 +22.6 93 +31 +31 очень
душно
1013.1 979.4 +23.5
09 22.06 ЮЗ 1 15 км 9/0
[Ci sp]
+27.3 +22.5 75 +36 +46 очень
душно
1014.4 980.7
12 22.06 З 1 15 км 9/0
[Ci sp]
+30.2 +23.1 66 +40 +61 опасность
солнечного
удара
1013.0 979.5
15 22.06 З 1 15 км 9/1 600 м
[Sc Ci sp]
+31.7 +22.9 60 +42 +53 опасность
перегрева
1010.3 976.9
18 22.06 З 1 15 км 8/1 600 м
[Cu Sc Ci sp]
+31.7 +23.7 63 +43 +44 опасность
перегрева
1009.8 976.4 +33.2
21 22.06 штиль 0 10 км 9/0
[Ci sp]
+29.0 +26.2 85 +44 +44 опасность
перегрева
1011.1 977.7
00 23.06 штиль 0 10 км 9/0
[Ci sp]
+27.5 +26.0 92 +30 +30 жарко 1011.2 977.8
03 23.06 штиль 0 10 км 9/0
[Ci sp]
+26.5 +24.7 90 +38 +38 очень
душно
1009.8 976.6
06 23.06 З 1 15 км 9/0
[Ci sp]
+26.0 +23.9 88 +36 +36 очень
душно
1009.7 976.4 +26.0
09 23.06 СЗ 2 15 км 9/0
[Ci sp]
+29.5 +23.4 70 +40 +48 очень
душно
1010.4 977.2
12 23.06 СЗ 3 15 км 9/0
[Ci sp]
+33.7 +23.6 56 +45 +59 опасность
перегрева
1009.2 976.1
15 23.06 С 5 15 км 9/0
[Ci sp]
+37.0 +23.4 46 +36 +41 очень
жарко
1006.3 973.5
18 23.06 штиль 0 15 км 9/0
[Ci sp]
+36.0 +23.5 49 +47 +47 опасность
перегрева
1004.9 972.3 +37.5
21 23.06 Ю 2 10 км 9/0
[Ci sp]
+31.9 +24.3 64 +44 +44 опасность
перегрева
1006.1 973.1
00 24.06 ЮЗ 3 10 км 9/0
[Ci sp]
+30.7 +24.1 68 +43 +43 опасность
перегрева
1006.3 973.5
03 24.06 Ю 5 10 км 9/0
[Ci sp]
+29.5 +24.6 75 +42 +42 опасность
перегрева
1005.6 973.0
06 24.06 Ю 5 15 км 9/8 600 м
[Cb cap Ac As Ci sp]
+25.7 +20.9 75 +32 +32 очень
душно
1008.7 975.7 +25.5
12 24.06 В 4 15 км 9/1 1200 м
[Frnb Ac trans Ci sp]
+28.5 +21.8 67 +37 +44 очень
душно
1010.1 976.9

 

Местоположение метеостанции Dedougou (Буркина-Фасо): широта 12.47 долгота -3.48 высота над уровнем моря 300 м.

В архиве по умолчанию представлена погода в Dedougou за последнюю неделю. Архивные данные за месяц целиком и за предыдущие месяцы, начиная с января 2011 года, Вы можете получить, выбрав интересующий диапазон дат из раскрывающегося списка и нажав кнопку "Ввод!".

Внимание! Время в таблицах - всемирное. Для получения местного времени необходимо прибавить поправку, которая в Dedougou равна 0 ч.

Смотрите также архив погоды в соседних городах и на ближайших метеорологических станциях:

Погода в Boromo (Буркина-Фасо) (100 км)
Погода в Ouahigouya (Буркина-Фасо) (168 км)
Погода в Bobo-Dioulasso (Буркина-Фасо) (171 км)
Погода в San (Мали) (175 км)
Погода в Ouagadougou (Буркина-Фасо) (213 км)
Погода в Koutiala (Мали) (216 км)
Погода в Mopti (Мали) (238 км)
Погода в Gaoua (Буркина-Фасо) (240 км)
Погода в Sikasso (Мали) (270 км)
Погода в Wa (Гана) (290 км)

Пояснения к столбцам:

Ветер - указаны скорость ветра в м/с - средняя за 10 мин, порывы в срок и между сроками (в фигурных скобках) и направление, откуда дует ветер: С - северный, СВ - северо-восточный, В - восточный, ЮВ - юго-восточный, Ю - южный, ЮЗ - юго-западный, З - западный, СЗ - северо-западный.
Видимость - горизонтальная дальность видимости в метрах или километрах. При видимости от 1 до 10 км при отсутствии осадков обычно наблюдается дымка, при ухудшении видимости до 1 км и менее - туман. В сухую погоду видимость может ухудшаться дымом, пылью или мглою.
Явления - указаны атмосферные явления, наблюдавшиеся в срок или в последний час перед сроком; фигурными скобками обозначены явления, наблюдавшиеся между сроками (за 1-3 часа до срока); квадратными скобками обозначены град или гололедные отложения с указанием их диаметра в мм.
Облачность - указаны через наклонную черту общая и нижняя облачность в баллах и высота нижней границы облаков в метрах; квадратными скобками обозначены формы облаков: Ci - перистые, Cs - перисто-слоистые, Cc - перисто-кучевые, Ac - высококучевые, As - высокослоистые, Sc - слоисто-кучевые, Ns - слоисто-дождевые, Cu - кучевые, Cb - кучево-дождевые. Подробнее классификацию облаков см. в Атласе облаков (PDF).
T - Температура воздуха - температура, измеренная на высоте 2 м над землей.
Td - Температура точки росы - температура, при понижении до которой содержащийся в воздухе водяной пар достигнет насыщения.
f - Относительная влажность воздуха - влажноcть воздуха, измеренная на высоте 2 м над землей.
Te - Эффективная температура - температура, которую ощущает одетый по сезону человек в тени. Характеристика душности погоды. При расчете учитывается влияние влажности воздуха и скорости ветра на теплоощущения человека.
Tes - Эффективная температура на солнце - температура, которую ощущает человек, с поправкой на солнечный нагрев. Характеристика знойности погоды. Зависит от высоты солнца над горизонтом, облачности и скорости ветра. Ночью, в пасмурную погоду, а также при ветре 12 м/с и более поправка равна нулю.
P - Атмосферное давление - приведенное к уровню моря атмосферное давление.
Po - Атмосферное давление - измеренное на уровне метеостанции атмосферное давление.
Tmin - Минимальная температура - минимум температуры воздуха на высоте 2 м над землей.
Tmax - Максимальная температура - максимум температуры воздуха на высоте 2 м над землей.
R - Количество осадков - Количество выпавших осадков за период времени, мм. При наведении курсора мыши на число - период времени, за который выпало указанное количество осадков.
R24 - Количество осадков - Количество выпавших осадков за 24 часа, мм.
S - Снежный покров - Высота снежного покрова, см. При наведении курсора мыши на число - состояние снежного покрова и степень покрытия местности в баллах.